Time,TemperatureF,DewpointF,PressureIn,WindDirection,WindDirectionDegrees,WindSpeedMPH,WindSpeedGustMPH,Humidity,HourlyPrecipIn,Conditions,Clouds,dailyrainin,SoftwareType,DateUTC
2013-08-24 00:14:00,64.0,57.0,30.19,NNE,22,0.0,0.0,78,0.00,,,0.00,,2013-08-24 04:14:00,
2013-08-24 00:24:00,63.0,56.0,30.19,NNE,22,0.0,0.0,79,0.00,,,0.00,,2013-08-24 04:24:00,
2013-08-24 00:44:00,63.0,57.0,30.19,NNE,22,0.0,0.0,80,0.00,,,0.00,,2013-08-24 04:44:00,
2013-08-24 00:54:00,63.0,57.0,30.19,NNE,22,0.0,0.0,82,0.00,,,0.00,,2013-08-24 04:54:00,
2013-08-24 01:13:00,62.0,57.0,30.19,NNE,22,0.0,1.0,84,0.00,,,0.00,,2013-08-24 05:13:00,
2013-08-24 01:23:00,61.0,57.0,30.19,NNE,22,0.0,0.0,86,0.00,,,0.00,,2013-08-24 05:23:00,
2013-08-24 01:43:00,61.0,57.0,30.19,NNE,22,0.0,0.0,86,0.00,,,0.00,,2013-08-24 05:43:00,
2013-08-24 01:53:00,60.0,56.0,30.19,NNE,22,0.0,0.0,87,0.00,,,0.00,,2013-08-24 05:53:00,
2013-08-24 02:12:00,60.0,56.0,30.20,SE,144,0.0,3.0,87,0.00,,,0.00,,2013-08-24 06:12:00,
2013-08-24 02:22:00,59.0,56.0,30.20,SE,144,0.0,1.0,89,0.00,,,0.00,,2013-08-24 06:22:00,
2013-08-24 02:42:00,60.0,56.0,30.20,ENE,73,0.0,2.0,87,0.00,,,0.00,,2013-08-24 06:42:00,
2013-08-24 02:52:00,59.0,55.0,30.20,ENE,74,0.0,1.0,87,0.00,,,0.00,,2013-08-24 06:52:00,
2013-08-24 03:12:00,59.0,55.0,30.21,ENE,74,0.0,1.0,88,0.00,,,0.00,,2013-08-24 07:12:00,
2013-08-24 03:22:00,58.0,55.0,30.21,ENE,74,0.0,1.0,90,0.00,,,0.00,,2013-08-24 07:22:00,
2013-08-24 03:43:00,59.0,56.0,30.21,ENE,75,1.0,2.0,89,0.00,,,0.00,,2013-08-24 07:43:00,
2013-08-24 03:53:00,59.0,56.0,30.21,ENE,75,1.0,1.0,89,0.00,,,0.00,,2013-08-24 07:53:00,
2013-08-24 04:12:00,59.0,55.0,30.21,ENE,75,1.0,2.0,88,0.00,,,0.00,,2013-08-24 08:12:00,
2013-08-24 04:22:00,58.0,55.0,30.21,ENE,75,0.0,1.0,89,0.00,,,0.00,,2013-08-24 08:22:00,
2013-08-24 04:52:00,57.0,54.0,30.22,ENE,75,0.0,0.0,90,0.00,,,0.00,,2013-08-24 08:52:00,
2013-08-24 05:11:00,57.0,54.0,30.22,ENE,75,0.0,2.0,91,0.00,,,0.00,,2013-08-24 09:11:00,
2013-08-24 05:22:00,57.0,54.0,30.23,ENE,75,0.0,0.0,91,0.00,,,0.00,,2013-08-24 09:22:00,
2013-08-24 05:44:00,57.0,55.0,30.23,ENE,75,0.0,0.0,92,0.00,,,0.00,,2013-08-24 09:44:00,
2013-08-24 05:53:00,56.0,54.0,30.24,ENE,75,0.0,0.0,92,0.00,,,0.00,,2013-08-24 09:53:00,
2013-08-24 06:13:00,56.0,54.0,30.24,ENE,75,0.0,1.0,93,0.00,,,0.00,,2013-08-24 10:13:00,
2013-08-24 06:23:00,56.0,54.0,30.24,ENE,75,0.0,0.0,92,0.00,,,0.00,,2013-08-24 10:23:00,
2013-08-24 06:42:00,56.0,54.0,30.25,ENE,75,1.0,1.0,93,0.00,,,0.00,,2013-08-24 10:42:00,
2013-08-24 06:53:00,56.0,54.0,30.26,ENE,75,1.0,3.0,94,0.00,,,0.00,,2013-08-24 10:53:00,
2013-08-24 07:12:00,56.0,54.0,30.26,East,90,1.0,3.0,93,0.00,,,0.00,,2013-08-24 11:12:00,
2013-08-24 07:22:00,56.0,54.0,30.27,ESE,111,1.0,3.0,92,0.00,,,0.00,,2013-08-24 11:22:00,
2013-08-24 07:52:00,57.0,54.0,30.28,ESE,104,2.0,4.0,91,0.00,,,0.00,,2013-08-24 11:52:00,
2013-08-24 08:12:00,58.0,55.0,30.28,ESE,103,1.0,3.0,90,0.00,,,0.00,,2013-08-24 12:12:00,
2013-08-24 08:21:00,59.0,56.0,30.29,ESE,107,0.0,1.0,89,0.00,,,0.00,,2013-08-24 12:21:00,
2013-08-24 08:42:00,61.0,57.0,30.29,ESE,107,0.0,1.0,88,0.00,,,0.00,,2013-08-24 12:42:00,
2013-08-24 08:52:00,62.0,57.0,30.29,ESE,105,1.0,3.0,85,0.00,,,0.00,,2013-08-24 12:52:00,
2013-08-24 09:11:00,64.0,59.0,30.29,ESE,104,1.0,3.0,84,0.00,,,0.00,,2013-08-24 13:11:00,
2013-08-24 09:22:00,65.0,59.0,30.30,East,101,2.0,3.0,81,0.00,,,0.00,,2013-08-24 13:22:00,
2013-08-24 09:52:00,68.0,59.0,30.31,SE,132,2.0,4.0,74,0.00,,,0.00,,2013-08-24 13:52:00,
2013-08-24 10:11:00,69.0,60.0,30.30,East,93,3.0,8.0,74,0.00,,,0.00,,2013-08-24 14:11:00,
2013-08-24 10:22:00,70.0,59.0,30.30,SE,127,5.0,9.0,69,0.00,,,0.00,,2013-08-24 14:22:00,
2013-08-24 10:52:00,72.0,58.0,30.30,ESE,116,6.0,10.0,61,0.00,,,0.00,,2013-08-24 14:52:00,
2013-08-24 11:12:00,73.0,58.0,30.30,ESE,119,5.0,9.0,59,0.00,,,0.00,,2013-08-24 15:12:00,
2013-08-24 11:22:00,73.0,58.0,30.30,ESE,119,3.0,8.0,60,0.00,,,0.00,,2013-08-24 15:22:00,
2013-08-24 11:45:00,74.0,57.0,30.30,ENE,78,5.0,8.0,56,0.00,,,0.00,,2013-08-24 15:45:00,
2013-08-24 11:54:00,75.0,57.0,30.30,ESE,107,4.0,11.0,54,0.00,,,0.00,,2013-08-24 15:54:00,
2013-08-24 12:13:00,75.0,59.0,30.30,SE,135,5.0,12.0,57,0.00,,,0.00,,2013-08-24 16:13:00,
2013-08-24 12:23:00,76.0,58.0,30.29,East,99,6.0,11.0,53,0.00,,,0.00,,2013-08-24 16:23:00,
2013-08-24 12:53:00,76.0,58.0,30.29,East,82,7.0,12.0,53,0.00,,,0.00,,2013-08-24 16:53:00,
2013-08-24 13:12:00,77.0,58.0,30.29,SE,133,8.0,12.0,52,0.00,,,0.00,,2013-08-24 17:12:00,
2013-08-24 13:23:00,77.0,59.0,30.28,ESE,109,5.0,13.0,53,0.00,,,0.00,,2013-08-24 17:23:00,
2013-08-24 13:42:00,77.0,58.0,30.28,ESE,117,7.0,11.0,52,0.00,,,0.00,,2013-08-24 17:42:00,
2013-08-24 13:52:00,78.0,57.0,30.28,SE,134,6.0,14.0,49,0.00,,,0.00,,2013-08-24 17:52:00,
2013-08-24 14:13:00,78.0,56.0,30.28,ESE,119,4.0,11.0,47,0.00,,,0.00,,2013-08-24 18:13:00,
2013-08-24 14:22:00,78.0,56.0,30.28,SE,135,7.0,13.0,46,0.00,,,0.00,,2013-08-24 18:22:00,
2013-08-24 14:42:00,79.0,56.0,30.28,SE,145,6.0,9.0,46,0.00,,,0.00,,2013-08-24 18:42:00,
2013-08-24 14:53:00,79.0,56.0,30.28,East,93,6.0,11.0,45,0.00,,,0.00,,2013-08-24 18:53:00,
2013-08-24 15:12:00,79.0,56.0,30.28,ESE,107,5.0,12.0,46,0.00,,,0.00,,2013-08-24 19:12:00,
2013-08-24 15:22:00,79.0,56.0,30.27,ESE,119,4.0,13.0,45,0.00,,,0.00,,2013-08-24 19:22:00,
2013-08-24 15:52:00,79.0,55.0,30.27,SE,143,6.0,9.0,43,0.00,,,0.00,,2013-08-24 19:52:00,
2013-08-24 16:12:00,79.0,55.0,30.27,SE,136,4.0,8.0,44,0.00,,,0.00,,2013-08-24 20:12:00,
2013-08-24 16:22:00,80.0,57.0,30.26,ESE,104,4.0,8.0,46,0.00,,,0.00,,2013-08-24 20:22:00,
2013-08-24 16:53:00,80.0,55.0,30.26,East,83,4.0,9.0,43,0.00,,,0.00,,2013-08-24 20:53:00,
2013-08-24 17:22:00,80.0,56.0,30.25,SE,140,3.0,6.0,44,0.00,,,0.00,,2013-08-24 21:22:00,
2013-08-24 17:55:00,80.0,55.0,30.25,East,96,4.0,8.0,43,0.00,,,0.00,,2013-08-24 21:55:00,
2013-08-24 18:14:00,80.0,56.0,30.25,SE,133,2.0,5.0,44,0.00,,,0.00,,2013-08-24 22:14:00,
2013-08-24 18:24:00,80.0,56.0,30.25,East,85,4.0,7.0,44,0.00,,,0.00,,2013-08-24 22:24:00,
2013-08-24 18:53:00,80.0,55.0,30.24,East,92,1.0,4.0,43,0.00,,,0.00,,2013-08-24 22:53:00,
2013-08-24 19:12:00,80.0,57.0,30.24,SE,133,2.0,6.0,46,0.00,,,0.00,,2013-08-24 23:12:00,
2013-08-24 19:22:00,80.0,57.0,30.25,SE,135,1.0,3.0,46,0.00,,,0.00,,2013-08-24 23:22:00,
2013-08-24 19:43:00,79.0,58.0,30.24,SE,127,2.0,3.0,48,0.00,,,0.00,,2013-08-24 23:43:00,
2013-08-24 19:53:00,79.0,60.0,30.24,SE,127,0.0,2.0,52,0.00,,,0.00,,2013-08-24 23:53:00,
2013-08-24 20:12:00,78.0,61.0,30.24,NE,47,0.0,0.0,55,0.00,,,0.00,,2013-08-25 00:12:00,
2013-08-24 20:22:00,79.0,62.0,30.25,NE,46,0.0,0.0,56,0.00,,,0.00,,2013-08-25 00:22:00,
2013-08-24 20:42:00,78.0,63.0,30.25,NE,46,0.0,0.0,60,0.00,,,0.00,,2013-08-25 00:42:00,
2013-08-24 20:52:00,75.0,62.0,30.25,NE,46,0.0,0.0,64,0.00,,,0.00,,2013-08-25 00:52:00,
2013-08-24 21:11:00,72.0,61.0,30.25,NE,46,0.0,0.0,69,0.00,,,0.00,,2013-08-25 01:11:00,
2013-08-24 21:22:00,70.0,61.0,30.25,NE,46,0.0,0.0,73,0.00,,,0.00,,2013-08-25 01:22:00,
2013-08-24 21:42:00,69.0,62.0,30.26,NE,46,0.0,0.0,78,0.00,,,0.00,,2013-08-25 01:42:00,
2013-08-24 21:52:00,67.0,61.0,30.26,ENE,70,0.0,1.0,81,0.00,,,0.00,,2013-08-25 01:52:00,
2013-08-24 22:11:00,66.0,61.0,30.27,ENE,70,0.0,0.0,83,0.00,,,0.00,,2013-08-25 02:11:00,
2013-08-24 22:22:00,65.0,61.0,30.26,ENE,70,0.0,1.0,86,0.00,,,0.00,,2013-08-25 02:22:00,
2013-08-24 22:42:00,64.0,60.0,30.26,ENE,70,0.0,1.0,87,0.00,,,0.00,,2013-08-25 02:42:00,
2013-08-24 22:52:00,64.0,61.0,30.26,ENE,70,0.0,1.0,90,0.00,,,0.00,,2013-08-25 02:52:00,
2013-08-24 23:23:00,64.0,61.0,30.27,ENE,70,0.0,1.0,90,0.00,,,0.00,,2013-08-25 03:23:00,
2013-08-24 23:54:00,63.0,60.0,30.26,ENE,70,0.0,0.0,89,0.00,,,0.00,,2013-08-25 03:54:00,